Location: Newark
(48.6461°N, 4.3644°W)
Time: 01:51:22
(UTC+00:00)

Transit 4A - Pass Details

Date: 26 January 2020
Orbit: 872 x 973 km, 66.8° (Epoch: 19 February)

Event Time Altitude Azimuth Distance (km) Brightness Sun altitude
Rises 11:36:51 0° 314° (NW) 3,491 10.4 21.5°
Reaches altitude 10° 11:40:50 10° 340° (NNW) 2,539 9.7 21.7°
Maximum altitude 11:43:40 14° 9° (N) 2,286 9.5 21.8°
Drops below altitude 10° 11:46:29 10° 38° (NE) 2,530 9.9 21.9°
Sets 11:50:27 0° 65° (ENE) 3,469 10.7 22.0°
